KAISTSAT 4

Satellite information

Favourite Embed

Satellite Type and Status

PAYLOADIN ORBIT

Key statistics

Satellite KAISTSAT 4 at a glance.

Uptime

7955

Days in orbit

Revolutions

≈ 14.7

Per day

Orbit

SSO

Sun Synchronous Orbit

Inclination

98.3

Latest

Satellite identification and parameters

Extended collection of information and parameters for KAISTSAT 4.

Object identification

Identified? True

Debris? False

Object name: KAISTSAT 4

International designator: 2003-042G

Object number (NORAD): 27945

Object ID (CCSDS): 27945

Country: SOUTH KOREA (SKOR)

Current information (Y/N): Y

RCS size: MEDIUM

Orbital parameters

Period: 98.131 minutes

Inclination: 98.3457 deg

SMA: 7047.456 km

Apoapsis: 677.24 km

Periapsis: 661.403 km

RAAN: 343.81 deg

Eccentricy: 0.0011236

Argument of periapsis: 350.7731 deg

Mean anomaly: 9.3265 deg

Mean motion: 14.67419127 rev/day

Mean motion (dot): 0.0000031 rev/day2

B* drag term: 0.000063829 1/REarth

Two-line elements (TLE)

Creation date: July 6, 2025, 6:05 p.m.

Reference frame: TEME

Reference center: EARTH

Epoch: July 6, 2025, 9:22 a.m. UTC

TLE line 0: 0 KAISTSAT 4

TLE line 1: 1 27945U 03042G 25187.39075752 .00000310 00000-0 63829-4 0 9993

TLE line 2: 2 27945 98.3457 343.8100 0011236 350.7731 9.3265 14.67419127163314

Live tracking on map

Real-time ground track for satellite KAISTSAT 4.

In-orbit conjunctions

There are no conjunctions computed for KAISTSAT 4, at the moment. Check back to stay up to date, as we update our databases every day.

Go to all conjunctions

Associated space launch

Mozhayets 4 (RS 22) was also a training satellite built by the Mozhaisky military academy. It also tested components to be used in upgraded GLONASS satellites.

KAISTSAT 4 was lifted into orbit during the mission ‘Kosmos-3M | Mozhaets-4’, on board a Kosmos-3M space rocket.

The launch took place on Sept. 27, 2003, 6:11 a.m. from 132/1 (132L).

For more information about the launch, click the button.

Launch to space Kosmos-3M | Mozhaets-4
Kosmos-3M | Mozhaets-4

Agency: N/A

Status: Launch Successful

Launch date: Sept. 27, 2003, 6:11 a.m. UTC

Rocket: Kosmos-3M

Launch pad: 132/1 (132L)

Location: Plesetsk Cosmodrome, Russian Federation

...

Latest news about this satellite

There are no fresh news available about this satellite. Check back as we update our databases every day.


Newsletter sign-up

Weekly statistics, charts and insights to help you stay on top of the space industry.